Regional Weather Roundup
Issued by NWS New Orleans/Baton Rouge, LA

Home | Current Version | Previous Version | Graphics & Text | Print | Product List | Glossary On
Versions: 1 2 3 4 5 6 7 8 9 10 11 12 13 14 15 16 17 18 19 20 21 22 23 24 25 26 27 28 29 30 31 32 33 34 35 36 37 38 39 40 41 42 43 44 45 46 47 48 49 50
070
ASUS44 KLIX 302207
RWRLIX
NEW ORLEANS REGIONAL WEATHER ROUNDUP
NATIONAL WEATHER SERVICE NEW ORLEANS LA
500 PM CDT MON MAR 30 2015

NOTE: "FAIR" INDICATES FEW OR NO CLOUDS BELOW 12,000 FEET WITH NO
      SIGNIFICANT WEATHER AND/OR OBSTRUCTIONS TO VISIBILITY.
      SKY/WX - SKY CONDITION AND SIGNIFICANT WEATHER.
      TMP - AIR TEMPERATURE.     DP    - DEWPOINT TEMPERATURE.
      RH  - RELATIVE HUMIDITY.   PRES  - PRESSURE.
      HI  - HEAT INDEX.          WCI   - WIND CHILL INDEX.

*  THESE STATIONS ARE NOT NWS OR FAA STATIONS AND ARE NOT UNDER
   NWS QUALITY CONTROL.

LAZ038-040-048-061>063-065>067-069-302300-
SOUTHEAST LOUISIANA

CITY           SKY/WX    TMP DP  RH WIND       PRES   REMARKS
N.O. AUDUBON     N/A     81  66  60 MISG        N/A
N.O. INTL ARPT MOSUNNY   81  59  47 SW12      30.13F
N.O. LAKEFRONT MOSUNNY   82  62  50 NE5       30.13F
SLIDELL        SUNNY     81  58  45 SW8       30.12F
BATON ROUGE    PTSUNNY   80  57  45 W9        30.11F
BOOTHVILLE     SUNNY     77  62  59 SW14      30.16F
BELLE CHASSE   MOSUNNY   78  60  53 SW9       30.12F
BOGALUSA*        N/A     85  51  31 W8        30.13F
GALLIANO*      CLEAR     80  63  56 SW14G24   30.16F
NEW ROADS*       N/A     81  57  43 SW9       30.12F
GONZALES*      MOCLDY    81  62  51 S12       30.12F
HAMMOND*       SUNNY     82  52  34 NW6       30.13F
HOUMA*         MOSUNNY   77  63  61 SW7       30.15F
PORT FOURCHON* CLEAR     77  63  61 SW8G15    30.20F

$$

MSZ070-080>082-302300-
SOUTHERN MISSISSIPPI

CITY           SKY/WX    TMP DP  RH WIND       PRES   REMARKS
MCCOMB         PTSUNNY   80  55  42 W7        30.11F
GULFPORT         N/A     77  64  64 S10G17    30.12F
BILOXI         SUNNY     75  67  75 SW14      30.12F
PASCAGOULA     MOSUNNY   77  64  64 SW9       30.13F
STENNIS ARPT*  MOSUNNY   81  50  34 MISG      30.12F

$$

COASTAL OBSERVATIONS
LAKE AND NEARSHORE STATIONS

STATION/POSITION TIME  TEMP    WIND        PRES    WAVE
                       AIR SEA DIR/SP/G            HT/PER
                 (UTC) (F)     (DEG/KT/KT) (MB)    (FT/S)
PASCAGOULA       2100   73     210/ 14/ 17 1020.3
WAVELAND YACHT   2100   76 67  200/  9/ 15 1020.3
GRAND ISLE       2100   76 69  210/  9/ 14 1021.5
SOUTHWEST PASS   2100   77 55  220/  3/  4 1022.6
NEW CANAL        2100   74      60/  4/  4 1021.1
SHELL BEACH      2100   74 71  120/  2/  3 1021.0

OFFSHORE STATIONS

STATION/POSITION TIME  TEMP    WIND        PRES    WAVE
                       AIR SEA DIR/SP/G            HT/PER
                 (UTC) (F)     (DEG/KT/KT) (MB)    (FT/S)
64 S DAUPHIN ISL 2150   72 72  200/ 14/ 16 1021.9    3/ 5

$$




USA.gov is the U.S. government's official web portal to all federal, state and local government web resources and services.